Location: Joffre
(52.3362°N, 113.5373°W)
Time: 12:33:07
(UTC+00:00)

N. Korean satellite - Pass Details

Date: 10 December 2021
Orbit: 447 x 491 km, 97.3° (Epoch: 21 January)

Event Time Altitude Azimuth Distance (km) Brightness Sun altitude
Rises 00:01:37 0° 174° (S) 2,505 10.5 -6.0°
Reaches altitude 10° 00:03:42 10° 178° (S) 1,624 9.6 -6.2°
Maximum altitude 00:07:08 60° 258° (WSW) 539 7.2 -6.7°
Drops below altitude 10° 00:10:34 10° 340° (NNW) 1,613 9.1 -7.1°
Sets 00:12:38 0° 344° (NNW) 2,486 10.0 -7.4°
